This is the latest recevied weather packets stored in our database for station/object OM5ZU-10. If no packets are shown the sender has not sent any weather packets the latest 10 day(s).
| Time | Temp. | Humidity | Pressure | Rain* | Wind** | Luminosity | Snow |
|---|---|---|---|---|---|---|---|
| 1787978168 | 19.44° C | 76% | 1013.9 hPa | - | - | - | - |
| 1787977268 | 18.89° C | 77% | 1013.7 hPa | - | - | - | - |
| 1787976368 | 18.89° C | 75% | 1013.6 hPa | - | - | - | - |
| 1787975468 | 19.44° C | 75% | 1013.3 hPa | - | - | - | - |
| 1787974567 | 19.44° C | 73% | 1013.5 hPa | - | - | - | - |
| 1787973667 | 20° C | 72% | 1013.7 hPa | - | - | - | - |
| 1787972767 | 20° C | 73% | 1013.6 hPa | - | - | - | - |
| 1787971867 | 20.56° C | 72% | 1013.4 hPa | - | - | - | - |
| 1787970967 | 22.22° C | 63% | 1013.1 hPa | - | - | - | - |
| 1787970067 | 22.22° C | 43% | 1012.6 hPa | - | - | - | - |
| 1787969166 | 22.22° C | 44% | 1012.6 hPa | - | - | - | - |
| 1787968266 | 22.22° C | 44% | 1012.2 hPa | - | - | - | - |
| 1787967366 | 22.78° C | 42% | 1011.6 hPa | - | - | - | - |
| 1787966466 | 22.78° C | 40% | 1010.4 hPa | - | - | - | - |
| 1787965566 | 23.33° C | 40% | 1010 hPa | - | - | - | - |
| 1787964666 | 23.33° C | 39% | 1010 hPa | - | - | - | - |
| 1787963766 | 23.33° C | 39% | 1010.1 hPa | - | - | - | - |
| 1787962866 | 23.89° C | 39% | 1010.3 hPa | - | - | - | - |
| 1787961965 | 23.89° C | 39% | 1010.4 hPa | - | - | - | - |
| 1787961065 | 23.89° C | 39% | 1010.6 hPa | - | - | - | - |
| 1787960165 | 24.44° C | 38% | 1010.7 hPa | - | - | - | - |
| 1787959265 | 24.44° C | 38% | 1010.7 hPa | - | - | - | - |
| 1787958365 | 24.44° C | 38% | 1011.1 hPa | - | - | - | - |
| 1787957465 | 24.44° C | 38% | 1010.9 hPa | - | - | - | - |
| 1787956564 | 24.44° C | 37% | 1010.5 hPa | - | - | - | - |
* Rain since midnight (hover to see other rain measurements)
** Current wind speed in m/s (hover to see current wind gust speed)